• In Schweiz
  • Länderverzeichnis
  • Für 7 Tage
  • Wassertemperatur
  • Satellitenkarten
  • Wetterkarte
  • Widgets
  • user-avatar
    Anmelden

    Stündliche Wetter Sydney

    Heute, 17 August, Freitag

    Zeit Temperatur Niederschläge Wind Luftdruck Luftfeuchtigkeit
    00:00 +9°C° 0 mm 3 m/S 760 mmHg 65%
    01:00 +8°C° 0 mm 3 m/S 760 mmHg 67%
    02:00 +8°C° 0 mm 3 m/S 760 mmHg 69%
    03:00 +7°C° 0 mm 3 m/S 760 mmHg 71%
    04:00 +7°C° 0 mm 3 m/S 760 mmHg 73%
    05:00 +5°C° 0 mm 3 m/S 760 mmHg 74%
    06:00 +5°C° 0 mm 3 m/S 760 mmHg 74%
    07:00 +5°C° 0 mm 3 m/S 760 mmHg 74%
    08:00 +9°C° 0 mm 3 m/S 760 mmHg 62%
    09:00 +12°C° 0 mm 3 m/S 760 mmHg 50%
    10:00 +16°C° 0 mm 3 m/S 760 mmHg 36%
    11:00 +17°C° 0 mm 3 m/S 760 mmHg 33%
    12:00 +18°C° 0 mm 3 m/S 759 mmHg 30%
    13:00 +19°C° 0 mm 3 m/S 759 mmHg 27%
    14:00 +19°C° 0 mm 3 m/S 759 mmHg 28%
    15:00 +19°C° 0 mm 3 m/S 758 mmHg 29%
    16:00 +18°C° 0 mm 2 m/S 759 mmHg 33%
    17:00 +16°C° 0 mm 2 m/S 759 mmHg 38%
    18:00 +14°C° 0 mm 2 m/S 759 mmHg 43%
    19:00 +12°C° 0 mm 1 m/S 760 mmHg 48%
    20:00 +10°C° 0 mm 2 m/S 760 mmHg 51%
    21:00 +9°C° 0 mm 3 m/S 760 mmHg 54%
    22:00 +7°C° 0 mm 4 m/S 760 mmHg 57%
    23:00 +7°C° 0 mm 4 m/S 760 mmHg 60%

    Morgen, 18 August, Samstag

    Zeit Temperatur Niederschläge Wind Luftdruck Luftfeuchtigkeit
    00:00 +7°C° 0 mm 3 m/S 760 mmHg 62%
    01:00 +7°C° 0 mm 3 m/S 760 mmHg 65%
    02:00 +7°C° 0 mm 3 m/S 760 mmHg 66%
    03:00 +5°C° 0 mm 3 m/S 759 mmHg 66%
    04:00 +5°C° 0 mm 3 m/S 759 mmHg 67%
    05:00 +5°C° 0 mm 4 m/S 759 mmHg 66%
    06:00 +5°C° 0 mm 4 m/S 759 mmHg 65%
    07:00 +5°C° 0 mm 4 m/S 759 mmHg 64%
    08:00 +9°C° 0 mm 5 m/S 758 mmHg 54%
    09:00 +14°C° 0 mm 5 m/S 758 mmHg 43%
    10:00 +17°C° 0 mm 5 m/S 758 mmHg 33%
    11:00 +20°C° 0 mm 6 m/S 757 mmHg 30%
    12:00 +21°C° 0 mm 6 m/S 756 mmHg 27%
    13:00 +22°C° 0 mm 7 m/S 755 mmHg 24%
    14:00 +21°C° 0 mm 7 m/S 755 mmHg 30%
    15:00 +18°C° 0 mm 8 m/S 755 mmHg 37%
    16:00 +16°C° 0 mm 9 m/S 755 mmHg 43%
    17:00 +15°C° 0 mm 8 m/S 756 mmHg 48%
    18:00 +12°C° 0 mm 8 m/S 756 mmHg 52%
    19:00 +10°C° 0 mm 7 m/S 757 mmHg 57%
    20:00 +10°C° 0 mm 7 m/S 757 mmHg 57%
    21:00 +9°C° 0 mm 8 m/S 758 mmHg 56%
    22:00 +7°C° 0 mm 8 m/S 758 mmHg 56%
    23:00 +7°C° 0 mm 8 m/S 758 mmHg 56%

    übermorgen, 19 August, Sonntag

    Zeit Temperatur Niederschläge Wind Luftdruck Luftfeuchtigkeit
    00:00 +7°C° 0 mm 8 m/S 757 mmHg 56%
    01:00 +7°C° 0 mm 8 m/S 757 mmHg 56%
    02:00 +6°C° 0 mm 8 m/S 757 mmHg 55%
    03:00 +6°C° 0 mm 8 m/S 757 mmHg 54%
    04:00 +6°C° 0 mm 9 m/S 757 mmHg 52%
    05:00 +6°C° 0 mm 9 m/S 757 mmHg 52%
    06:00 +6°C° 0 mm 8 m/S 757 mmHg 51%
    07:00 +6°C° 0 mm 8 m/S 757 mmHg 50%
    08:00 +8°C° 0 mm 9 m/S 758 mmHg 45%
    09:00 +10°C° 0 mm 9 m/S 758 mmHg 40%
    10:00 +12°C° 0 mm 10 m/S 758 mmHg 35%
    11:00 +13°C° 0 mm 10 m/S 757 mmHg 33%
    12:00 +13°C° 0 mm 10 m/S 757 mmHg 32%
    13:00 +13°C° 0 mm 10 m/S 757 mmHg 31%
    14:00 +13°C° 0 mm 10 m/S 757 mmHg 31%
    15:00 +13°C° 0 mm 10 m/S 757 mmHg 32%
    16:00 +12°C° 0 mm 10 m/S 757 mmHg 33%
    17:00 +11°C° 0,1 mm 10 m/S 758 mmHg 37%
    18:00 +9°C° 0,1 mm 10 m/S 758 mmHg 40%
    19:00 +8°C° 0,1 mm 9 m/S 759 mmHg 44%
    20:00 +8°C° 0 mm 10 m/S 759 mmHg 45%
    21:00 +7°C° 0 mm 10 m/S 760 mmHg 45%
    22:00 +7°C° 0 mm 10 m/S 760 mmHg 46%
    23:00 +7°C° 0 mm 10 m/S 760 mmHg 46%

    20 August, Montag

    Zeit Temperatur Niederschläge Wind Luftdruck Luftfeuchtigkeit
    00:00 +6°C° 0 mm 10 m/S 760 mmHg 46%
    01:00 +6°C° 0 mm 10 m/S 760 mmHg 46%
    02:00 +6°C° 0,3 mm 10 m/S 761 mmHg 46%
    03:00 +6°C° 0,3 mm 10 m/S 761 mmHg 46%
    04:00 +6°C° 0,3 mm 10 m/S 761 mmHg 46%
    05:00 +5°C° 0,1 mm 10 m/S 762 mmHg 48%
    06:00 +5°C° 0,1 mm 10 m/S 762 mmHg 50%
    07:00 +5°C° 0,1 mm 9 m/S 763 mmHg 52%
    08:00 +6°C° 0 mm 9 m/S 763 mmHg 46%
    09:00 +8°C° 0 mm 9 m/S 763 mmHg 40%
    10:00 +11°C° 0 mm 9 m/S 763 mmHg 35%
    11:00 +12°C° 0 mm 8 m/S 763 mmHg 32%
    12:00 +13°C° 0 mm 8 m/S 763 mmHg 30%
    13:00 +16°C° 0 mm 7 m/S 762 mmHg 27%
    14:00 +16°C° 0 mm 7 m/S 762 mmHg 27%
    15:00 +16°C° 0 mm 6 m/S 762 mmHg 27%
    16:00 +16°C° 0 mm 6 m/S 762 mmHg 28%
    17:00 +14°C° 0 mm 5 m/S 762 mmHg 34%
    18:00 +12°C° 0 mm 5 m/S 762 mmHg 41%
    19:00 +10°C° 0 mm 4 m/S 763 mmHg 47%
    20:00 +8°C° 0 mm 4 m/S 763 mmHg 51%
    21:00 +7°C° 0 mm 4 m/S 763 mmHg 54%
    22:00 +6°C° 0 mm 5 m/S 763 mmHg 58%
    23:00 +6°C° 0 mm 5 m/S 763 mmHg 61%

    21 August, Dienstag

    Zeit Temperatur Niederschläge Wind Luftdruck Luftfeuchtigkeit
    00:00 +5°C° 0 mm 5 m/S 763 mmHg 64%
    01:00 +5°C° 0 mm 5 m/S 763 mmHg 67%
    02:00 +3°C° 0 mm 5 m/S 762 mmHg 69%
    03:00 +3°C° 0 mm 5 m/S 762 mmHg 71%
    04:00 +3°C° 0 mm 5 m/S 762 mmHg 73%
    05:00 +3°C° 0 mm 5 m/S 762 mmHg 73%
    06:00 +3°C° 0 mm 5 m/S 762 mmHg 72%
    07:00 +3°C° 0 mm 5 m/S 762 mmHg 71%
    08:00 +7°C° 0 mm 5 m/S 762 mmHg 61%
    09:00 +9°C° 0 mm 5 m/S 762 mmHg 50%
    10:00 +13°C° 0 mm 5 m/S 762 mmHg 40%
    11:00 +15°C° 0 mm 5 m/S 761 mmHg 36%
    12:00 +17°C° 0 mm 4 m/S 760 mmHg 33%
    13:00 +18°C° 0 mm 4 m/S 760 mmHg 29%
    14:00 +18°C° 0 mm 4 m/S 760 mmHg 32%
    15:00 +18°C° 0 mm 4 m/S 759 mmHg 34%
    16:00 +17°C° 0 mm 4 m/S 759 mmHg 36%
    17:00 +14°C° 0 mm 5 m/S 760 mmHg 43%
    18:00 +12°C° 0 mm 5 m/S 760 mmHg 50%
    19:00 +9°C° 0 mm 6 m/S 761 mmHg 57%
    20:00 +9°C° 0 mm 6 m/S 761 mmHg 60%
    21:00 +8°C° 0 mm 6 m/S 761 mmHg 64%
    22:00 +8°C° 0 mm 6 m/S 762 mmHg 67%
    23:00 +7°C° 0 mm 5 m/S 761 mmHg 69%

    22 August, Mittwoch

    Zeit Temperatur Niederschläge Wind Luftdruck Luftfeuchtigkeit
    00:00 +7°C° 0 mm 5 m/S 761 mmHg 71%
    01:00 +7°C° 0 mm 5 m/S 761 mmHg 73%
    02:00 +6°C° 0 mm 5 m/S 761 mmHg 74%
    03:00 +6°C° 0 mm 5 m/S 761 mmHg 75%
    04:00 +6°C° 0 mm 5 m/S 761 mmHg 76%
    05:00 +6°C° 0 mm 5 m/S 761 mmHg 76%
    06:00 +6°C° 0 mm 4 m/S 761 mmHg 77%
    07:00 +5°C° 0 mm 4 m/S 762 mmHg 77%
    08:00 +8°C° 0 mm 4 m/S 762 mmHg 66%
    09:00 +12°C° 0 mm 4 m/S 762 mmHg 54%
    10:00 +16°C° 0 mm 3 m/S 761 mmHg 43%
    11:00 +17°C° 0 mm 3 m/S 761 mmHg 40%
    12:00 +18°C° 0 mm 2 m/S 760 mmHg 37%
    13:00 +19°C° 0 mm 2 m/S 760 mmHg 34%
    14:00 +18°C° 0 mm 2 m/S 760 mmHg 38%
    15:00 +18°C° 0 mm 2 m/S 760 mmHg 41%
    16:00 +17°C° 0 mm 2 m/S 760 mmHg 45%
    17:00 +16°C° 0 mm 2 m/S 760 mmHg 50%
    18:00 +14°C° 0 mm 1 m/S 761 mmHg 54%
    19:00 +13°C° 0 mm 1 m/S 762 mmHg 59%
    20:00 +12°C° 0 mm 1 m/S 762 mmHg 62%
    21:00 +11°C° 0 mm 1 m/S 762 mmHg 65%
    22:00 +10°C° 0 mm 2 m/S 762 mmHg 68%
    23:00 +9°C° 0 mm 2 m/S 762 mmHg 69%
    Mehr zeigen